Stations météo

Publicité
Agen, France (7524): Température de l'air & dewpoint: 14.07.2018 01:00:00 - 20.07.2018 01:00:00 (CEST)Agen, France (7524): Température de l'air 5cm: 14.07.2018 01:00:00 - 20.07.2018 01:00:00 (CEST)Agen, France (7524): Température de l'air -20cm & Température de l'air -100cm: 14.07.2018 01:00:00 - 20.07.2018 01:00:00 (CEST)Agen, France (7524): Vitesse du vent & gusts: 14.07.2018 01:00:00 - 20.07.2018 01:00:00 (CEST)Agen, France (7524): Direction du vent: 14.07.2018 01:00:00 - 20.07.2018 01:00:00 (CEST)Agen, France (7524): reduced air pressure: 14.07.2018 01:00:00 - 20.07.2018 01:00:00 (CEST)Agen, France (7524): visibility: 14.07.2018 01:00:00 - 20.07.2018 01:00:00 (CEST)Agen, France (7524): Ensoleillement: 14.07.2018 01:00:00 - 20.07.2018 01:00:00 (CEST)Agen, France (7524): Quantités de précipitations: 14.07.2018 01:00:00 - 20.07.2018 01:00:00 (CEST)
Date & Time tt [°C] td [°C] tt 5cm [°C] tt -20cm [°C] tt -100cm [°C] ff [km/h] ff [knt] fx [km/h] fx [knt] dd ppp [hPa] vv [km] sd [min] rr [mm]
20.07.2018 01:00:00 22,8 18,1 20,4 23,4 20,5 14 7 24 13 W 1015,0 48 0 0,0
20.07.2018 00:00:00 23,2 18,5 21,3 23,5 20,5 15 8 25 13 WNW 1015,0 39 0 0,0
19.07.2018 23:00:00 24,5 19,1 22,2 23,5 20,5 13 7 29 15 W 1014,7 37 0 0,0
19.07.2018 22:00:00 25,6 19,9 22,2 23,4 20,5 21 11 32 18 WNW 1014,1 37 11 0,0
19.07.2018 21:00:00 28,9 17,4 25,8 23,3 20,5 5 3 12 6 WNW 1013,2 60 58 0,0
19.07.2018 20:00:00 30,2 17,0 29,5 23,2 20,5 10 5 19 10 WNW 1013,2 58 55 0,0
19.07.2018 19:00:00 31,1 17,4 33,5 23,1 20,5 9 5 17 9 W 1012,9 49 60 0,0
19.07.2018 18:00:00 31,7 15,6 37,8 22,9 20,5 4 2 17 9 WSW 1012,9 60 60 0,0
19.07.2018 17:00:00 31,3 18,3 37,8 22,7 20,5 5 3 18 10 ESE 1013,3 58 56 0,0
19.07.2018 16:00:00 30,7 17,8 40,1 22,6 20,5 6 4 19 11 SSE 1013,9 19 60 0,0
19.07.2018 15:00:00 29,5 18,3 40,3 22,4 20,5 5 3 21 12 SE 1014,3 56 60 0,0
19.07.2018 14:00:00 28,2 18,3 40,4 22,4 20,5 8 4 20 11 ENE 1014,9 50 60 0,0
19.07.2018 13:00:00 27,5 17,9 38,8 22,3 20,5 11 6 19 11 ENE 1015,6 32 60 0,0
19.07.2018 12:00:00 26,8 18,4 36,8 22,3 20,5 4 2 17 9 SE 1016,0 52 60 0,0
19.07.2018 11:00:00 25,4 18,3 32,8 22,3 20,5 7 4 22 12 SSE 1016,2 50 60 0,0
19.07.2018 10:00:00 23,6 19,3 24,8 22,3 20,5 4 2 9 5 ENE 1016,5 38 60 0,0
19.07.2018 09:00:00 20,6 18,9 18,8 22,4 20,5 6 3 11 6 E 1016,5 27 60 0,0
19.07.2018 08:00:00 18,7 18,7 16,3 22,4 20,5 6 3 14 8 E 1016,5 25 60 0,0
19.07.2018 07:00:00 16,9 16,9 16,2 22,5 20,5 9 5 15 8 ESE 1016,1 10 4 0,0
19.07.2018 06:00:00 17,0 17,0 13,8 22,6 20,5 8 4 11 6 ESE 1015,6 0,2 0 0,2
19.07.2018 05:00:00 16,8 16,6 12,9 22,7 20,5 7 4 9 5 SE 1015,8 19 0 0,0
19.07.2018 04:00:00 16,9 16,6 13,2 22,8 20,5 0 0 7 4 N 1015,7 1,0 0 0,0
19.07.2018 03:00:00 16,8 16,3 13,9 22,9 20,5 6 3 8 4 ESE 1016,0 33 0 0,0
19.07.2018 02:00:00 18,2 17,4 14,6 23,0 20,5 2 1 7 4 SSE 1016,3 36 0 0,0
19.07.2018 01:00:00 18,7 17,7 15,5 23,0 20,5 6 3 11 6 E 1016,4 45 0 0,0
19.07.2018 00:00:00 19,9 18,2 16,1 23,0 20,5 2 1 9 5 E 1016,3 37 0 0,0
18.07.2018 23:00:00 21,2 17,6 18,1 23,1 20,5 6 3 18 10 ESE 1016,4 59 0 0,0
18.07.2018 22:00:00 22,6 17,3 20,3 23,1 20,5 9 5 19 10 S 1016,1 1,6 0 0,0
18.07.2018 21:00:00 23,1 17,6 21,9 23,0 20,5 8 4 16 9 SSE 1015,3 60 21 0,0
18.07.2018 20:00:00 24,7 18,4 22,8 22,9 20,5 13 7 19 10 SE 1014,5 49 37 0,0
18.07.2018 19:00:00 25,7 19,6 22,2 23,0 20,5 14 7 24 13 ENE 1014,0 22 31 0,0
18.07.2018 18:00:00 23,3 20,8 21,6 22,8 20,5 4 2 19 10 SSW 1014,2 35 0 0,2
18.07.2018 17:00:00 24,7 19,1 21,5 22,7 20,5 14 8 25 13 WNW 1013,7 4,6 0 1,6
18.07.2018 16:00:00 29,5 15,6 27,0 22,5 20,5 2 1 22 12 WNW 1012,7 20 15 0,0
18.07.2018 15:00:00 30,4 15,7 36,9 22,4 20,5 10 6 25 14 ESE 1013,0 60 50 0,0
18.07.2018 14:00:00 29,5 15,6 38,6 22,3 20,4 17 9 37 20 E 1013,3 60 60 0,0
18.07.2018 13:00:00 28,4 17,6 36,8 22,2 20,5 11 6 31 17 SE 1014,1 60 60 0,0
18.07.2018 12:00:00 27,1 18,1 33,5 22,2 20,5 16 8 26 14 ESE 1014,8 60 60 0,0
18.07.2018 11:00:00 25,0 17,7 28,9 22,3 20,5 16 9 25 14 ESE 1015,1 60 60 0,0
18.07.2018 10:00:00 22,5 17,2 24,3 22,3 20,5 16 9 23 12 E 1015,8 60 60 0,0
18.07.2018 09:00:00 20,5 16,9 18,4 22,4 20,5 11 6 14 8 E 1016,2 60 60 0,0
18.07.2018 08:00:00 18,4 17,6 14,0 22,4 20,5 4 2 6 4 ESE 1016,3 32 60 0,2
18.07.2018 07:00:00 16,3 16,0 12,3 22,5 20,5 4 2 5 3 SE 1016,5 28 5 0,0
18.07.2018 06:00:00 15,7 15,2 12,4 22,7 20,5 2 1 4 2 ESE 1016,6 17 0 0,0
18.07.2018 05:00:00 16,5 16,0 12,9 22,7 20,5 2 1 4 2 S 1016,4 28 0 0,0
18.07.2018 04:00:00 16,6 15,8 13,3 22,8 20,5 0 0 3 2 N 1016,7 8 0 0,0
18.07.2018 03:00:00 17,4 16,6 13,7 22,9 20,5 2 1 5 3 NW 1016,8 36 0 0,0
18.07.2018 02:00:00 17,7 16,4 14,3 23,0 20,5 3 2 10 6 ESE 1017,2 39 0 0,0
18.07.2018 01:00:00 18,4 16,7 14,8 23,0 20,5 4 2 9 5 SE 1017,5 45 0 0,0
18.07.2018 00:00:00 18,9 16,7 15,8 23,1 20,5 4 2 8 4 SSE 1017,8 20 0 0,0
17.07.2018 23:00:00 20,9 16,9 16,7 23,1 20,5 0 0 4 2 N 1017,9 54 0 0,0
17.07.2018 22:00:00 23,8 16,6 18,4 23,0 20,5 2 1 9 5 WSW 1017,4 0,3 12 0,0
17.07.2018 21:00:00 25,8 16,1 24,2 23,0 20,5 8 5 11 6 WNW 1017,0 60 60 0,0
17.07.2018 20:00:00 27,6 14,9 29,0 22,9 20,5 6 3 13 7 NNW 1017,0 60 60 0,0
17.07.2018 19:00:00 27,8 14,4 32,7 22,7 20,5 8 4 15 8 NW 1017,2 18 60 0,0
17.07.2018 18:00:00 28,0 14,3 38,0 22,6 20,5 5 3 18 10 NNW 1017,8 53 60 0,0
17.07.2018 17:00:00 27,9 14,5 39,6 22,5 20,5 7 4 19 10 NW 1018,4 58 58 0,0
17.07.2018 16:00:00 27,7 16,0 38,1 22,4 20,5 5 3 17 9 W 1018,7 18 53 0,0
17.07.2018 15:00:00 26,6 14,4 33,8 22,2 20,5 5 3 14 8 NW 1019,2 60 26 0,0
17.07.2018 14:00:00 26,2 15,0 34,6 22,2 20,5 3 1 11 6 S 1019,7 59 46 0,0
17.07.2018 13:00:00 25,6 16,4 38,9 22,2 20,5 6 3 13 7 WSW 1020,2 60 60 0,0
17.07.2018 12:00:00 24,2 17,0 29,2 22,1 20,4 3 2 14 8 NNE 1020,6 50 38 0,0
17.07.2018 11:00:00 22,6 17,1 27,4 22,2 20,5 4 2 11 6 NW 1021,0 47 47 0,0
17.07.2018 10:00:00 20,8 18,0 20,2 22,2 20,5 5 3 10 5 W 1021,2 28 13 0,0
17.07.2018 09:00:00 19,3 17,4 19,1 22,2 20,5 3 1 6 3 S 1021,1 24 0 0,0
17.07.2018 08:00:00 18,2 17,6 17,9 22,3 20,5 0 0 6 3 N 1021,1 23 0 0,0
17.07.2018 07:00:00 17,3 17,0 13,3 22,4 20,5 2 1 8 4 N 1021,0 18 0 0,0
17.07.2018 06:00:00 16,2 15,7 13,3 22,4 20,4 3 1 6 3 SSW 1020,6 5 0 0,0
17.07.2018 05:00:00 16,2 15,4 13,4 22,5 20,5 4 2 12 6 W 1020,5 14 0 0,0
17.07.2018 04:00:00 17,4 16,6 13,3 22,6 20,4 8 4 13 7 SW 1020,8 23 0 0,0
17.07.2018 03:00:00 16,7 15,6 13,6 22,7 20,4 0 0 8 5 N 1021,0 26 0 0,0
17.07.2018 02:00:00 17,9 15,9 15,6 22,7 20,4 6 3 18 10 NW 1021,2 35 0 0,0
17.07.2018 01:00:00 19,3 16,1 17,3 22,8 20,4 11 6 20 11 W 1020,8 42 0 0,0
17.07.2018 00:00:00 19,9 16,1 17,5 22,8 20,4 12 7 25 14 W 1020,6 52 0 0,0
16.07.2018 23:00:00 20,6 15,8 18,2 22,9 20,4 15 8 29 16 W 1020,3 54 0 0,0
16.07.2018 22:00:00 21,6 16,3 19,5 22,9 20,4 20 11 39 21 WNW 1019,3 45 13 0,0
16.07.2018 21:00:00 23,3 16,8 22,1 22,9 20,4 22 12 40 22 WNW 1018,3 37 45 0,0
16.07.2018 20:00:00 24,1 17,6 23,1 22,8 20,4 9 5 27 14 W 1017,3 47 11 0,0
16.07.2018 19:00:00 25,3 17,7 26,4 22,8 20,4 17 9 31 17 NW 1016,8 40 43 0,0
16.07.2018 18:00:00 25,8 17,2 27,3 22,7 20,4 27 14 39 21 WNW 1016,6 41 42 0,0
16.07.2018 17:00:00 24,8 17,5 26,0 22,7 20,4 21 12 33 18 WNW 1016,4 46 22 0,0
16.07.2018 16:00:00 23,5 16,0 23,6 22,7 20,4 14 7 36 19 NW 1016,3 54 7 0,0
16.07.2018 15:00:00 24,6 16,8 28,2 22,7 20,4 18 10 31 17 NNW 1015,9 60 13 0,0
16.07.2018 14:00:00 23,5 16,5 27,7 22,7 20,4 15 8 27 14 NW 1016,3 58 5 0,0
16.07.2018 13:00:00 22,5 17,4 22,8 22,7 20,4 17 9 29 15 WNW 1016,1 37 2 0,0
16.07.2018 12:00:00 20,9 17,7 22,2 22,9 20,4 12 7 21 12 W 1015,9 31 0 0,0
16.07.2018 11:00:00 20,3 18,2 19,6 22,9 20,4 12 6 23 12 WSW 1015,8 29 0 0,0
16.07.2018 10:00:00 18,8 18,0 18,3 23,0 20,4 10 6 19 11 W 1015,6 28 0 0,6
16.07.2018 09:00:00 18,2 17,4 17,4 23,1 20,4 10 5 24 13 NW 1014,9 15 0 4,9
16.07.2018 08:00:00 18,5 17,5 18,0 23,2 20,3 13 7 29 16 SW 1015,2 10 0 1,6
16.07.2018 07:00:00 18,9 17,9 17,8 23,3 20,3 14 8 18 10 NW 1013,7 22 0 0,4
16.07.2018 06:00:00 19,4 17,2 17,8 23,4 20,3 9 5 34 19 SSE 1014,5 19 0 0,2
16.07.2018 05:00:00 18,8 18,0 16,0 23,5 20,3 18 10 66 36 NNW 1012,4 28 0 11,0
16.07.2018 04:00:00 21,5 18,1 20,8 23,6 20,3 25 14 38 21 W 1014,5 23 0 0,0
16.07.2018 03:00:00 22,0 19,7 20,8 23,7 20,3 14 8 21 12 WNW 1013,8 15 0 0,0
16.07.2018 02:00:00 22,7 19,9 18,9 23,7 20,3 10 5 20 11 WSW 1014,1 19 0 0,0
16.07.2018 01:00:00 21,3 18,9 19,1 23,8 20,3 5 3 11 6 WNW 1013,7 29 0 0,0
16.07.2018 00:00:00 21,6 18,0 19,4 23,9 20,3 8 4 12 7 WNW 1013,8 42 0 0,0
15.07.2018 23:00:00 22,7 17,4 20,7 23,9 20,3 6 4 21 12 NW 1013,9 53 0 0,0
15.07.2018 22:00:00 24,2 16,2 21,6 23,9 20,3 4 2 25 14 W 1013,4 0,5 0 0,0
15.07.2018 21:00:00 26,0 16,8 24,7 23,8 20,3 11 6 17 9 NW 1012,6 60 1 0,0
15.07.2018 20:00:00 25,8 16,4 24,6 23,7 20,3 5 3 45 24 SSW 1012,1 59 9 0,0
15.07.2018 19:00:00 26,5 17,3 27,5 23,6 20,3 26 14 53 28 NW 1012,8 42 36 0,0
15.07.2018 18:00:00 32,3 16,6 41,5 23,4 20,3 8 4 19 10 N 1012,0 53 60 0,0
15.07.2018 17:00:00 32,0 16,3 43,0 23,3 20,3 9 5 16 9 SSE 1011,9 51 60 0,0
15.07.2018 16:00:00 31,3 17,6 43,0 23,1 20,3 6 4 26 14 N 1012,7 20 60 0,0
15.07.2018 15:00:00 30,4 17,8 42,9 23,0 20,3 6 3 21 12 ESE 1013,3 51 60 0,0
15.07.2018 14:00:00 29,6 16,8 42,4 22,9 20,3 9 5 18 10 E 1014,0 60 60 0,0
15.07.2018 13:00:00 28,3 17,5 41,6 22,9 20,3 7 4 16 9 ENE 1014,6 60 60 0,0
15.07.2018 12:00:00 27,1 16,7 36,8 22,9 20,3 6 4 13 7 NNE 1015,0 59 58 0,0
15.07.2018 11:00:00 25,9 17,5 25,8 22,8 20,2 4 2 12 7 ESE 1015,0 59 54 0,0
15.07.2018 10:00:00 23,3 17,1 24,3 22,9 20,3 11 6 17 9 SE 1015,5 59 39 0,0
15.07.2018 09:00:00 21,6 17,4 19,5 23,0 20,3 12 6 16 8 ESE 1015,4 55 21 0,0
15.07.2018 08:00:00 20,2 16,4 18,6 23,0 20,3 5 3 11 6 SE 1015,1 60 1 0,0
15.07.2018 07:00:00 19,9 16,3 17,9 23,1 20,3 6 3 23 12 NW 1014,9 60 0 0,0
15.07.2018 06:00:00 19,4 16,1 16,3 23,2 20,3 11 6 15 8 SE 1014,4 60 0 0,0
15.07.2018 05:00:00 21,0 15,8 16,8 23,2 20,3 8 4 16 9 SSE 1015,4 60 0 0,0
15.07.2018 04:00:00 20,8 17,6 16,8 23,3 20,3 5 3 11 6 ESE 1014,6 52 0 0,0
15.07.2018 03:00:00 22,6 17,3 19,7 23,4 20,3 5 3 23 12 E 1014,8 57 0 0,0
15.07.2018 02:00:00 24,8 16,8 21,0 23,4 20,3 14 7 31 17 S 1014,9 60 0 0,0
15.07.2018 01:00:00 24,9 17,4 20,9 23,4 20,3 4 2 7 4 SW 1015,0 46 0 0,0
15.07.2018 00:00:00 25,0 17,0 20,4 23,5 20,2 5 3 9 5 WNW 1015,2 59 0 0,0
14.07.2018 23:00:00 26,2 16,2 20,7 23,5 20,2 5 3 11 6 N 1014,5 60 0 0,0
14.07.2018 22:00:00 27,3 16,9 21,6 23,4 20,2 6 3 11 6 W 1014,4 0,8 14 0,0
14.07.2018 21:00:00 28,9 16,1 24,9 23,4 20,2 8 4 16 9 NNW 1013,9 58 28 0,0
14.07.2018 20:00:00 31,2 14,4 30,5 23,3 20,2 12 7 21 11 NNW 1013,8 60 60 0,0
14.07.2018 19:00:00 32,1 14,7 35,1 23,1 20,2 11 6 22 12 NW 1013,7 39 60 0,0
14.07.2018 18:00:00 32,7 14,8 40,1 23,0 20,2 10 6 22 12 WNW 1014,1 56 60 0,0
14.07.2018 17:00:00 32,6 15,1 43,9 22,8 20,2 7 4 24 13 W 1014,4 56 60 0,0
14.07.2018 16:00:00 32,1 15,1 45,2 22,7 20,3 7 4 29 16 W 1014,8 18 60 0,0
14.07.2018 15:00:00 31,6 15,5 47,4 22,5 20,3 9 5 17 9 W 1015,5 17 60 0,0
14.07.2018 14:00:00 30,7 15,9 45,1 22,4 20,2 7 4 19 10 NNW 1016,0 52 60 0,0
14.07.2018 13:00:00 29,5 16,7 44,1 22,4 20,2 10 5 19 10 NE 1016,3 18 60 0,0
14.07.2018 12:00:00 28,7 16,3 41,5 22,3 20,2 4 2 12 6 ENE 1016,7 49 60 0,0
14.07.2018 11:00:00 26,5 17,0 35,8 22,3 20,2 3 2 10 5 SSW 1016,9 19 60 0,0
14.07.2018 10:00:00 25,3 18,2 26,3 22,3 20,2 3 1 8 4 NNE 1017,1 39 43 0,0
14.07.2018 09:00:00 23,5 17,9 22,4 22,4 20,2 2 1 18 10 N 1017,1 37 36 0,0
14.07.2018 08:00:00 21,7 18,1 17,8 22,4 20,2 10 5 15 8 SSE 1016,7 32 29 0,0
14.07.2018 07:00:00 19,5 17,3 17,4 22,5 20,2 5 3 16 8 E 1016,1 30 0 0,0
14.07.2018 06:00:00 20,3 17,5 16,3 22,6 20,2 8 5 17 9 W 1018,1 32 0 0,0
14.07.2018 05:00:00 19,8 16,2 15,9 22,6 20,3 3 1 13 7 N 1017,8 42 0 0,0
14.07.2018 04:00:00 19,8 15,4 16,5 22,7 20,2 7 4 14 7 W 1017,8 52 0 0,0
14.07.2018 03:00:00 20,1 15,7 16,6 22,7 20,2 5 3 8 5 E 1017,6 55 0 0,0
14.07.2018 02:00:00 21,3 15,4 17,2 22,8 20,2 4 2 9 5 SSW 1017,9 56 0 0,0
14.07.2018 01:00:00 22,6 16,2 19,5 22,8 20,2 3 2 10 5 NNW 1017,8 58 0 0,0

tt = Température de l'air
td = dewpoint
tt 5cm = Température de l'air 5cm
tt -20cm = Température de l'air -20cm
tt -100cm = Température de l'air -100cm
ff = Vitesse du vent
fx = gusts
dd = Direction du vent
ppp = reduced air pressure
vv = visibility
sd = Ensoleillement
rr = Quantités de précipitations

stations d'obs. à proximité